TimeCST,TemperatureF,Dew PointF,Humidity,Sea Level PressureIn,VisibilityMPH,Wind Direction,Wind SpeedMPH,Gust SpeedMPH,PrecipitationIn,Events,Conditions,WindDirDegrees,DateUTC
12:53 AM,30.0,23.0,75,30.32,10.0,NW,4.6,-,N/A,,Overcast,320,2013-03-07 06:53:00
1:53 AM,30.0,21.9,72,30.33,10.0,NW,5.8,-,N/A,,Overcast,310,2013-03-07 07:53:00
2:53 AM,30.0,21.0,69,30.34,10.0,NW,5.8,-,N/A,,Overcast,310,2013-03-07 08:53:00
3:53 AM,28.9,21.0,72,30.35,10.0,NW,3.5,-,N/A,,Overcast,310,2013-03-07 09:53:00
4:53 AM,28.0,19.0,69,30.35,10.0,WNW,3.5,-,N/A,,Overcast,300,2013-03-07 10:53:00
5:53 AM,26.1,18.0,71,30.37,10.0,NW,3.5,-,N/A,,Overcast,320,2013-03-07 11:53:00
6:53 AM,25.0,17.1,72,30.38,10.0,NW,5.8,-,N/A,,Partly Cloudy,320,2013-03-07 12:53:00
7:53 AM,26.1,16.0,66,30.40,10.0,NW,6.9,-,N/A,,Clear,320,2013-03-07 13:53:00
8:53 AM,27.0,17.1,66,30.42,10.0,NNW,4.6,-,N/A,,Clear,330,2013-03-07 14:53:00
9:53 AM,30.0,17.1,59,30.42,10.0,NNW,5.8,-,N/A,,Clear,330,2013-03-07 15:53:00
10:53 AM,30.0,18.0,61,30.42,10.0,WNW,5.8,-,N/A,,Clear,300,2013-03-07 16:53:00
11:53 AM,33.1,19.0,56,30.42,10.0,Variable,4.6,-,N/A,,Partly Cloudy,0,2013-03-07 17:53:00
12:53 PM,34.0,19.0,54,30.41,10.0,NNW,3.5,-,N/A,,Partly Cloudy,330,2013-03-07 18:53:00
1:53 PM,34.0,19.0,54,30.39,10.0,Calm,Calm,-,N/A,,Clear,0,2013-03-07 19:53:00
2:53 PM,36.0,19.0,50,30.40,10.0,NNW,4.6,-,N/A,,Clear,340,2013-03-07 20:53:00
3:53 PM,35.1,19.0,52,30.41,10.0,NNW,4.6,-,N/A,,Clear,340,2013-03-07 21:53:00
4:53 PM,33.1,19.9,59,30.41,10.0,ENE,4.6,-,N/A,,Clear,70,2013-03-07 22:53:00
5:53 PM,28.0,21.9,78,30.43,10.0,NE,3.5,-,N/A,,Clear,40,2013-03-07 23:53:00
6:53 PM,23.0,18.0,81,30.44,10.0,ENE,3.5,-,N/A,,Clear,60,2013-03-08 00:53:00
7:53 PM,23.0,19.9,88,30.44,10.0,Calm,Calm,-,N/A,,Clear,0,2013-03-08 01:53:00
8:53 PM,21.0,17.1,85,30.45,7.0,North,3.5,-,N/A,,Clear,350,2013-03-08 02:53:00
9:53 PM,19.9,19.0,96,30.45,6.0,North,3.5,-,N/A,,Clear,10,2013-03-08 03:53:00
10:26 PM,23.0,19.4,86,30.42,6.0,North,4.6,-,N/A,,Mostly Cloudy,360,2013-03-08 04:26:00
10:53 PM,21.9,19.0,89,30.45,5.0,Calm,Calm,-,N/A,,Overcast,0,2013-03-08 04:53:00
11:53 PM,23.0,19.0,85,30.45,6.0,NNE,4.6,-,N/A,,Overcast,20,2013-03-08 05:53:00